| time (UTC) | temp F | wind direction | speed MPH | gust MPH | rain 1hr in | rain 24hr in | rain mn in | humidity % | barometer mb |
| 20260508225016 | 76 | 157 | 7.0 | 14.0 | 0.00 | 0.01 | 0.00 | 83 | 1010.7 |
| 20260508223016 | 75 | 180 | 7.0 | 12.0 | 0.00 | 0.01 | 0.00 | 81 | 1010.9 |
| 20260508222016 | 75 | 180 | 8.0 | 12.0 | 0.00 | 0.01 | 0.00 | 82 | 1011.0 |
| 20260508220018 | 76 | 202 | 6.0 | 11.0 | 0.00 | 0.01 | 0.00 | 81 | 1011.2 |
| 20260508215016 | 77 | 202 | 8.0 | 15.0 | 0.00 | 0.01 | 0.00 | 81 | 1011.3 |
| 20260508214016 | 76 | 202 | 9.0 | 16.0 | 0.00 | 0.01 | 0.00 | 81 | 1011.3 |
| 20260508213119 | 75 | 180 | 7.0 | 12.0 | 0.00 | 0.01 | 0.00 | 83 | 1011.3 |
| 20260508212016 | 75 | 180 | 7.0 | 14.0 | 0.00 | 0.01 | 0.00 | 82 | 1011.5 |
| 20260508211016 | 75 | 157 | 7.0 | 13.0 | 0.00 | 0.01 | 0.00 | 83 | 1011.5 |
| 20260508210017 | 76 | 180 | 8.0 | 13.0 | 0.00 | 0.01 | 0.00 | 81 | 1011.6 |
| 20260508205016 | 76 | 157 | 6.0 | 11.0 | 0.00 | 0.01 | 0.00 | 81 | 1011.8 |
| 20260508204017 | 76 | 202 | 6.0 | 12.0 | 0.00 | 0.01 | 0.00 | 80 | 1011.8 |
| 20260508203016 | 76 | 180 | 6.0 | 11.0 | 0.00 | 0.01 | 0.00 | 80 | 1012.0 |
| 20260508202017 | 76 | 180 | 6.0 | 13.0 | 0.00 | 0.01 | 0.00 | 79 | 1012.2 |
| 20260508201117 | 76 | 180 | 6.0 | 12.0 | 0.00 | 0.01 | 0.00 | 79 | 1012.1 |
| 20260508200018 | 76 | 157 | 7.0 | 13.0 | 0.00 | 0.01 | 0.00 | 80 | 1012.2 |
| 20260508195016 | 76 | 180 | 8.0 | 14.0 | 0.00 | 0.01 | 0.00 | 79 | 1012.4 |
| 20260508194016 | 77 | 202 | 8.0 | 13.0 | 0.00 | 0.01 | 0.00 | 78 | 1012.4 |
| 20260508192016 | 77 | 180 | 10.0 | 15.0 | 0.00 | 0.01 | 0.00 | 77 | 1012.6 |
| 20260508191016 | 77 | 180 | 8.0 | 13.0 | 0.00 | 0.01 | 0.00 | 80 | 1012.7 |
| 20260508190016 | 76 | 202 | 6.0 | 11.0 | 0.00 | 0.01 | 0.00 | 82 | 1012.7 |
| 20260508185017 | 75 | 202 | 8.0 | 13.0 | 0.00 | 0.01 | 0.00 | 84 | 1012.8 |
| 20260508184017 | 74 | 202 | 7.0 | 14.0 | 0.00 | 0.01 | 0.00 | 84 | 1012.9 |
| 20260508183016 | 73 | 202 | 8.0 | 12.0 | 0.00 | 0.01 | 0.00 | 85 | 1013.4 |
| 20260508182016 | 72 | 157 | 4.0 | 7.0 | 0.00 | 0.01 | 0.00 | 87 | 1013.5 |
| 20260508181021 | 72 | 202 | 6.0 | 10.0 | 0.00 | 0.01 | 0.00 | 85 | 1013.5 |
| 20260508180017 | 73 | 202 | 2.0 | 4.0 | 0.00 | 0.01 | 0.00 | 84 | 1013.6 |
| 20260508175016 | 74 | 202 | 5.0 | 10.0 | 0.00 | 0.01 | 0.00 | 84 | 1013.7 |
| 20260508174116 | 74 | 180 | 7.0 | 16.0 | 0.00 | 0.02 | 0.00 | 84 | 1013.8 |
| 20260508173018 | 73 | 202 | 5.0 | 10.0 | 0.00 | 0.03 | 0.00 | 85 | 1014.0 |
| 20260508172117 | 72 | 202 | 8.0 | 14.0 | 0.00 | 0.03 | 0.00 | 87 | 1014.2 |
| 20260508171017 | 72 | 202 | 6.0 | 10.0 | 0.00 | 0.03 | 0.00 | 87 | 1014.2 |
| 20260508170017 | 72 | 202 | 4.0 | 10.0 | 0.00 | 0.03 | 0.00 | 88 | 1014.3 |
| 20260508165017 | 71 | 202 | 5.0 | 10.0 | 0.00 | 0.03 | 0.00 | 89 | 1014.4 |
| 20260508164016 | 69 | 202 | 4.0 | 9.0 | 0.00 | 0.03 | 0.00 | 91 | 1014.3 |
| 20260508163016 | 68 | 202 | 4.0 | 7.0 | 0.00 | 0.03 | 0.00 | 92 | 1014.4 |
| 20260508162016 | 67 | 202 | 7.0 | 12.0 | 0.00 | 0.03 | 0.00 | 92 | 1014.6 |
| 20260508161016 | 66 | 180 | 4.0 | 9.0 | 0.00 | 0.03 | 0.00 | 93 | 1015.1 |
| 20260508160016 | 66 | 202 | 6.0 | 11.0 | 0.00 | 0.03 | 0.00 | 94 | 1015.1 |
| 20260508155117 | 65 | 180 | 7.0 | 11.0 | 0.00 | 0.03 | 0.00 | 95 | 1015.3 |
| 20260508154017 | 64 | 180 | 6.0 | 11.0 | 0.00 | 0.03 | 0.00 | 96 | 1015.3 |
| 20260508153016 | 63 | 202 | 4.0 | 7.0 | 0.00 | 0.04 | 0.00 | 97 | 1015.2 |
| 20260508152016 | 62 | 202 | 5.0 | 9.0 | 0.00 | 0.04 | 0.00 | 97 | 1015.4 |
| 20260508151017 | 62 | 180 | 5.0 | 10.0 | 0.00 | 0.05 | 0.00 | 97 | 1015.2 |
| 20260508150016 | 61 | 157 | 4.0 | 6.0 | 0.00 | 0.06 | 0.00 | 98 | 1015.2 |
| 20260508145016 | 61 | 157 | 3.0 | 9.0 | 0.00 | 0.06 | 0.00 | 98 | 1015.5 |
| 20260508144016 | 60 | 180 | 4.0 | 7.0 | 0.00 | 0.06 | 0.00 | 98 | 1015.5 |
| 20260508143017 | 60 | 180 | 3.0 | 5.0 | 0.00 | 0.06 | 0.00 | 98 | 1015.3 |
| 20260508141017 | 59 | 180 | 3.0 | 6.0 | 0.00 | 0.07 | 0.00 | 99 | 1015.5 |
| 20260508140017 | 59 | 90 | 3.0 | 5.0 | 0.00 | 0.07 | 0.00 | 99 | 1015.1 |
| 20260508135016 | 58 | 90 | 2.0 | 4.0 | 0.00 | 0.07 | 0.00 | 99 | 1015.2 |
| 20260508134017 | 58 | 90 | 2.0 | 3.0 | 0.00 | 0.07 | 0.00 | 99 | 1015.0 |
| 20260508133017 | 57 | 90 | 3.0 | 4.0 | 0.00 | 0.07 | 0.00 | 98 | 1015.0 |
| 20260508132017 | 57 | 90 | 3.0 | 5.0 | 0.00 | 0.07 | 0.00 | 98 | 1015.1 |
| 20260508125017 | 56 | 90 | 2.0 | 4.0 | 0.00 | 0.07 | 0.00 | 97 | 1015.1 |
| 20260508124117 | 56 | 90 | 4.0 | 5.0 | 0.00 | 0.07 | 0.00 | 97 | 1015.2 |
| 20260508123117 | 56 | 90 | 3.0 | 5.0 | 0.00 | 0.07 | 0.00 | 97 | 1015.0 |
| 20260508122118 | 56 | 90 | 4.0 | 6.0 | 0.00 | 0.07 | 0.00 | 97 | 1014.9 |
| 20260508121017 | 56 | 90 | 4.0 | 7.0 | 0.00 | 0.07 | 0.00 | 96 | 1015.3 |
| 20260508115017 | 57 | 112 | 2.0 | 3.0 | 0.00 | 0.07 | 0.00 | 95 | 1015.5 |
| 20260508114137 | 57 | 90 | 2.0 | 3.0 | 0.00 | 0.07 | 0.00 | 94 | 1015.6 |
| 20260508113117 | 57 | 90 | 2.0 | 4.0 | 0.00 | 0.07 | 0.00 | 94 | 1015.5 |
| 20260508112017 | 57 | 90 | 2.0 | 4.0 | 0.00 | 0.07 | 0.00 | 93 | 1015.4 |
| 20260508111017 | 57 | 90 | 2.0 | 4.0 | 0.00 | 0.07 | 0.00 | 93 | 1015.3 |
| 20260508110017 | 57 | 90 | 2.0 | 4.0 | 0.00 | 0.07 | 0.00 | 93 | 1015.3 |
| 20260508105017 | 57 | 90 | 2.0 | 3.0 | 0.00 | 0.07 | 0.00 | 92 | 1015.3 |
| 20260508104017 | 57 | 90 | 4.0 | 5.0 | 0.00 | 0.07 | 0.00 | 92 | 1015.1 |
| 20260508103017 | 57 | 90 | 4.0 | 5.0 | 0.00 | 0.07 | 0.00 | 92 | |
| 20260508102017 | 57 | 90 | 2.0 | 4.0 | 0.00 | 0.07 | 0.00 | 92 | |
| 20260508101017 | 57 | 90 | 2.0 | 3.0 | 0.00 | 0.07 | 0.00 | 92 | |
| 20260508100017 | 57 | 90 | 2.0 | 4.0 | 0.00 | 0.07 | 0.00 | 91 | 1015.6 |
| 20260508095017 | 57 | 90 | 2.0 | 4.0 | 0.00 | 0.07 | 0.00 | 91 | 1015.6 |
| 20260508094017 | 57 | 0.0 | 0.0 | 0.00 | 0.07 | 0.00 | 91 | 1015.8 | |
| 20260508093022 | 57 | 139 | 1.0 | 0.0 | 0.00 | 0.07 | 0.00 | 90 | 1015.5 |
| 20260508092015 | 57 | 112 | 2.0 | 4.0 | 0.00 | 0.07 | 0.00 | 90 | 1015.8 |
| 20260508085017 | 57 | 135 | 3.0 | 6.0 | 0.00 | 0.07 | 0.00 | 90 | 1015.6 |
| 20260508084117 | 57 | 135 | 3.0 | 6.0 | 0.00 | 0.07 | 0.00 | 90 | 1015.6 |
| 20260508083017 | 57 | 112 | 5.0 | 9.0 | 0.00 | 0.07 | 0.00 | 90 | 1015.0 |
| 20260508082017 | 57 | 112 | 4.0 | 7.0 | 0.00 | 0.07 | 0.00 | 90 | 1015.2 |
| 20260508081015 | 57 | 112 | 4.0 | 8.0 | 0.00 | 0.07 | 0.00 | 90 | 1015.2 |
| 20260508080015 | 57 | 112 | 3.0 | 5.0 | 0.00 | 0.07 | 0.00 | 90 | 1015.3 |
| 20260508075015 | 57 | 112 | 5.0 | 7.0 | 0.00 | 0.07 | 0.00 | 90 | 1015.3 |
| 20260508074015 | 57 | 112 | 3.0 | 5.0 | 0.00 | 0.07 | 0.00 | 90 | 1015.5 |
| 20260508073015 | 57 | 135 | 3.0 | 4.0 | 0.00 | 0.07 | 0.00 | 89 | 1015.8 |
| 20260508072015 | 57 | 135 | 3.0 | 5.0 | 0.00 | 0.07 | 0.00 | 88 | 1016.1 |
| 20260508070015 | 57 | 135 | 4.0 | 9.0 | 0.00 | 0.07 | 0.00 | 88 | 1015.8 |
| 20260508065015 | 57 | 112 | 4.0 | 7.0 | 0.00 | 0.07 | 0.00 | 88 | 1015.6 |
| 20260508064035 | 57 | 112 | 4.0 | 9.0 | 0.00 | 0.07 | 0.00 | 88 | 1015.6 |
| 20260508063015 | 57 | 112 | 3.0 | 5.0 | 0.00 | 0.07 | 0.00 | 88 | 1015.6 |
| 20260508062035 | 57 | 90 | 4.0 | 7.0 | 0.00 | 0.07 | 0.00 | 88 | 1015.4 |
| 20260508061015 | 57 | 90 | 5.0 | 6.0 | 0.00 | 0.07 | 0.00 | 88 | 1015.4 |
| 20260508060015 | 57 | 67 | 5.0 | 7.0 | 0.00 | 0.07 | 0.00 | 88 | 1015.4 |
| 20260508055015 | 57 | 67 | 6.0 | 9.0 | 0.00 | 0.07 | 0.00 | 88 | 1015.5 |
| 20260508054015 | 57 | 90 | 4.0 | 6.0 | 0.00 | 0.07 | 0.00 | 88 | 1015.8 |
| 20260508053015 | 57 | 90 | 3.0 | 5.0 | 0.00 | 0.07 | 0.00 | 88 | 1015.8 |
| 20260508052015 | 57 | 90 | 4.0 | 7.0 | 0.00 | 0.07 | 0.00 | 88 | 1016.0 |
| 20260508051015 | 57 | 112 | 4.0 | 6.0 | 0.00 | 0.07 | 0.00 | 88 | 1016.1 |
| 20260508050015 | 57 | 90 | 5.0 | 7.0 | 0.00 | 0.07 | 0.07 | 88 | 1016.0 |
| 20260508045017 | 57 | 90 | 3.0 | 6.0 | 0.00 | 0.07 | 0.07 | 88 | 1016.2 |
| 20260508044017 | 57 | 90 | 3.0 | 5.0 | 0.00 | 0.07 | 0.07 | 88 | 1016.3 |
| 20260508043017 | 58 | 90 | 4.0 | 6.0 | 0.00 | 0.07 | 0.07 | 88 | 1016.2 |
| 20260508042117 | 58 | 67 | 6.0 | 9.0 | 0.00 | 0.07 | 0.07 | 90 | 1016.2 |
| 20260508041017 | 58 | 67 | 4.0 | 6.0 | 0.00 | 0.07 | 0.07 | 90 | 1016.5 |
| 20260508040017 | 58 | 67 | 3.0 | 4.0 | 0.00 | 0.07 | 0.07 | 91 | 1016.7 |
| 20260508035017 | 58 | 67 | 4.0 | 6.0 | 0.00 | 0.07 | 0.07 | 90 | 1016.4 |
| 20260508034016 | 58 | 67 | 2.0 | 5.0 | 0.00 | 0.07 | 0.07 | 90 | 1016.7 |
| 20260508033017 | 58 | 45 | 3.0 | 5.0 | 0.00 | 0.07 | 0.07 | 90 | 1016.1 |
| 20260508032017 | 58 | 67 | 4.0 | 7.0 | 0.00 | 0.07 | 0.07 | 90 | 1016.2 |
| 20260508031017 | 58 | 45 | 5.0 | 7.0 | 0.00 | 0.07 | 0.07 | 89 | 1016.1 |
| 20260508030017 | 58 | 67 | 4.0 | 8.0 | 0.00 | 0.07 | 0.07 | 88 | 1015.9 |
| 20260508025017 | 58 | 90 | 7.0 | 11.0 | 0.00 | 0.07 | 0.07 | 89 | 1015.4 |
| 20260508024017 | 58 | 112 | 3.0 | 5.0 | 0.00 | 0.07 | 0.07 | 90 | 1016.1 |
| 20260508023016 | 59 | 90 | 3.0 | 5.0 | 0.00 | 0.07 | 0.07 | 90 | 1016.0 |
| 20260508022016 | 59 | 0.0 | 2.0 | 0.00 | 0.07 | 0.07 | 90 | 1016.5 | |
| 20260508021016 | 59 | 225 | 3.0 | 5.0 | 0.00 | 0.07 | 0.07 | 89 | 1016.0 |
| 20260508015117 | 59 | 135 | 2.0 | 3.0 | 0.00 | 0.07 | 0.07 | 88 | 1016.4 |
| 20260508014016 | 59 | 45 | 2.0 | 4.0 | 0.00 | 0.07 | 0.07 | 87 | 1015.5 |
| 20260508013017 | 59 | 315 | 2.0 | 4.0 | 0.00 | 0.07 | 0.07 | 86 | 1015.6 |
| 20260508012016 | 59 | 337 | 4.0 | 6.0 | 0.00 | 0.07 | 0.07 | 85 | 1016.3 |
| 20260508011138 | 59 | 90 | 4.0 | 7.0 | 0.00 | 0.07 | 0.07 | 85 | 1015.4 |
| 20260508010016 | 59 | 67 | 5.0 | 8.0 | 0.00 | 0.07 | 0.07 | 84 | 1014.7 |
| 20260508005017 | 60 | 45 | 4.0 | 8.0 | 0.00 | 0.07 | 0.07 | 83 | 1015.3 |
| 20260508004118 | 60 | 90 | 5.0 | 9.0 | 0.00 | 0.07 | 0.07 | 82 | 1015.3 |
| 20260508003016 | 60 | 67 | 4.0 | 6.0 | 0.00 | 0.07 | 0.07 | 82 | 1015.7 |
| 20260508002016 | 60 | 67 | 7.0 | 10.0 | 0.00 | 0.07 | 0.07 | 82 | 1015.4 |
| 20260508001016 | 60 | 67 | 8.0 | 12.0 | 0.00 | 0.07 | 0.07 | 82 | 1015.2 |
| 20260508000017 | 60 | 90 | 6.0 | 11.0 | 0.00 | 0.07 | 0.07 | 82 | 1015.1 |
| 20260507235016 | 60 | 67 | 11.0 | 15.0 | 0.01 | 0.07 | 0.07 | 80 | 1014.9 |
| 20260507234117 | 60 | 67 | 9.0 | 15.0 | 0.01 | 0.07 | 0.07 | 80 | 1015.8 |
| 20260507233016 | 60 | 90 | 11.0 | 16.0 | 0.01 | 0.07 | 0.07 | 79 | 1015.5 |
| 20260507232016 | 60 | 67 | 7.0 | 12.0 | 0.01 | 0.07 | 0.07 | 79 | 1016.2 |
| 20260507231116 | 60 | 67 | 9.0 | 13.0 | 0.01 | 0.07 | 0.07 | 80 | 1016.3 |
| 20260507230016 | 60 | 90 | 10.0 | 17.0 | 0.01 | 0.07 | 0.07 | 81 | 1015.6 |